1998-067WH

Last updated on Wed Apr 17 2024 00:02:05 GMT+0000 (Coordinated Universal Time)

1 59508U 98067WH 24107.39888140 .00111296 00000+0 18260-2 0 9990 2 59508 51.6363 261.7462 0003277 101.0391 259.0967 15.51566414 854
UTC large
Height (km)
Speed (km/s)
/
Latitude / Longitude
Inclination (degrees)
Orbital Period (minutes)
Azimuth
Elevation
Range (km)
Doppler Factor

Next 0 passes for location: London (51.5072 / 0.1276)

Sorry there are no passes over London.